GW3653 Weather Reports


Display with metric or nautical units.
time (UTC)temp
F
wind
direction
speed
MPH
gust
MPH
rain 1hr
in
rain 24hr
in
rain mn
in
humidity
%
barometer
mb
20260901211518 54 0.0 1.0 0.00 0.01 0.00 80 1018.7
20260901210519 54 0.0 3.0 0.00 0.01 0.00 80 1018.8
20260901205518 54 0.0 3.0 0.00 0.01 0.00 80 1018.7
20260901204518 54 0.0 3.0 0.00 0.01 0.00 81 1018.9
20260901203538 54 0.0 0.0 0.00 0.01 0.00 80 1018.9
20260901202518 54 248 1.0 7.0 0.00 0.01 0.00 80 1018.7
20260901201518 54 0.0 5.0 0.00 0.01 0.00 80 1018.9
20260901200518 54 0.0 3.0 0.00 0.01 0.00 79 1018.8
20260901195518 54 270 1.0 9.0 0.00 0.01 0.00 79 1018.9
20260901194518 54 0.0 4.0 0.00 0.01 0.00 78 1019.0
20260901193538 54 248 1.0 8.0 0.00 0.01 0.00 78 1019.1
20260901192518 54 0.0 2.0 0.00 0.01 0.00 78 1019.0
20260901191518 55 248 1.0 8.0 0.00 0.01 0.00 77 1019.1
20260901190518 54 0.0 6.0 0.00 0.01 0.00 77 1019.3
20260901185518 54 0.0 2.0 0.00 0.01 0.00 77 1019.2
20260901184518 54 0.0 5.0 0.00 0.01 0.00 77 1019.3
20260901183517 55 0.0 3.0 0.00 0.01 0.00 77 1019.4
20260901182518 55 0.0 6.0 0.00 0.01 0.00 77 1019.6
20260901181518 55 270 1.0 8.0 0.00 0.01 0.00 77 1019.7
20260901180538 55 0.0 5.0 0.00 0.01 0.00 77 1019.8
20260901175518 55 0.0 3.0 0.00 0.01 0.00 76 1019.9
20260901174517 55 0.0 1.0 0.00 0.01 0.00 77 1019.9
20260901173558 55 0.0 2.0 0.00 0.01 0.00 76 1019.8
20260901172517 55 0.0 1.0 0.00 0.01 0.00 77 1019.9
20260901171731 55 0.0 0.0 0.00 0.01 0.00 77 1020.0
20260901170518 55 0.0 3.0 0.00 0.01 0.00 77 1020.2
20260901165517 55 0.0 7.0 0.00 0.01 0.00 76 1020.2
20260901164517 55 0.0 0.0 0.00 0.01 0.00 76 1020.3
20260901163517 55 0.0 1.0 0.00 0.01 0.00 76 1020.2
20260901162518 55 0.0 2.0 0.00 0.01 0.00 76 1020.3
20260901161517 55 0.0 2.0 0.00 0.01 0.00 76 1020.3
20260901160518 55 0.0 4.0 0.00 0.01 0.00 76 1020.4
20260901155518 55 0.0 1.0 0.00 0.01 0.01 76 1020.6
20260901154518 55 0.0 1.0 0.00 0.01 0.01 75 1020.7
20260901153518 55 0.0 1.0 0.00 0.01 0.01 75 1020.8
20260901152517 55 0.0 3.0 0.00 0.01 0.01 75 1020.9
20260901151517 55 0.0 2.0 0.00 0.01 0.01 75 1021.1
20260901150518 55 0.0 1.0 0.00 0.01 0.01 75 1021.0
20260901145518 55 0.0 0.0 0.00 0.01 0.01 74 1021.1
20260901144517 55 0.0 1.0 0.00 0.01 0.01 74 1021.0
20260901143518 56 0.0 2.0 0.00 0.01 0.01 73 1021.2
20260901142517 56 0.0 3.0 0.00 0.01 0.01 73 1021.3
20260901141537 56 270 1.0 7.0 0.00 0.02 0.01 72 1021.4
20260901140517 56 0.0 4.0 0.00 0.02 0.01 72 1021.5
20260901135518 56 248 1.0 8.0 0.00 0.02 0.01 72 1021.6
20260901134518 56 0.0 3.0 0.00 0.02 0.01 72 1021.7
20260901133518 56 0.0 8.0 0.00 0.02 0.01 73 1021.9
20260901132537 56 248 1.0 9.0 0.00 0.02 0.01 73 1022.0
20260901131517 55 0.0 2.0 0.00 0.03 0.01 74 1022.0
20260901130518 55 0.0 1.0 0.00 0.03 0.01 74 1022.0
20260901125538 55 0.0 6.0 0.00 0.04 0.01 75 1022.1
20260901124517 55 0.0 1.0 0.00 0.04 0.01 75 1022.2
20260901123558 55 0.0 1.0 0.00 0.04 0.01 75 1022.3
20260901122518 55 0.0 1.0 0.00 0.04 0.01 75 1022.3
20260901121517 55 0.0 3.0 0.00 0.04 0.01 75 1022.4
20260901120517 55 0.0 2.0 0.00 0.04 0.01 74 1022.5
20260901115517 55 0.0 4.0 0.00 0.04 0.01 74 1022.5
20260901114517 56 0.0 1.0 0.00 0.04 0.01 73 1022.4
20260901113517 56 248 1.0 5.0 0.00 0.04 0.01 73 1022.4
20260901112517 56 0.0 2.0 0.00 0.05 0.01 75 1022.3
20260901111517 56 0.0 2.0 0.00 0.05 0.01 76 1022.2
20260901110518 56 0.0 3.0 0.00 0.06 0.01 77 1022.2
20260901105517 57 248 1.0 7.0 0.00 0.06 0.01 77 1022.2
20260901104518 57 248 1.0 6.0 0.00 0.08 0.01 76 1022.1
20260901103517 57 248 1.0 7.0 0.00 0.08 0.01 76 1022.2
20260901102517 57 248 1.0 8.0 0.00 0.09 0.01 75 1022.2
20260901101517 57 0.0 4.0 0.00 0.09 0.01 75 1022.2
20260901100517 57 0.0 5.0 0.00 0.09 0.01 75 1022.2
20260901095517 57 0.0 3.0 0.00 0.09 0.01 76 1022.1
20260901094519 58 0.0 2.0 0.00 0.09 0.01 76 1022.1
20260901093519 58 270 1.0 8.0 0.00 0.09 0.01 76 1022.1
20260901092519 58 225 1.0 7.0 0.00 0.10 0.01 76 1021.9
20260901091519 59 225 1.0 5.0 0.00 0.10 0.01 76 1021.8
20260901090519 59 248 1.0 8.0 0.00 0.10 0.01 74 1022.0
20260901085539 59 0.0 2.0 0.00 0.10 0.01 74 1021.9
20260901084519 59 0.0 2.0 0.00 0.10 0.01 73 1022.0
20260901083519 60 0.0 1.0 0.00 0.10 0.01 73 1021.9
20260901082519 60 0.0 2.0 0.00 0.11 0.01 74 1022.0
20260901081519 60 0.0 3.0 0.00 0.11 0.01 74 1022.0
20260901080519 60 0.0 2.0 0.00 0.11 0.01 74 1022.0
20260901075519 59 0.0 3.0 0.00 0.11 0.01 74 1022.0
20260901074519 60 248 1.0 6.0 0.00 0.11 0.01 74 1022.1
20260901073539 60 248 1.0 6.0 0.00 0.11 0.01 73 1021.9
20260901072519 61 248 1.0 10.0 0.00 0.11 0.01 72 1021.8
20260901071519 61 225 1.0 6.0 0.00 0.11 0.01 73 1021.8
20260901070519 61 248 1.0 5.0 0.00 0.11 0.01 73 1021.8
20260901065519 60 225 1.0 10.0 0.00 0.11 0.01 73 1021.8
20260901064518 60 225 1.0 5.0 0.00 0.11 0.01 73 1021.9
20260901063559 61 248 2.0 9.0 0.00 0.11 0.01 69 1021.9
20260901062539 61 248 1.0 10.0 0.00 0.11 0.01 70 1021.9
20260901061518 61 248 1.0 5.0 0.00 0.11 0.01 69 1021.9
20260901060518 61 248 1.0 7.0 0.00 0.11 0.01 70 1022.0
20260901055518 60 248 3.0 11.0 0.00 0.11 0.01 68 1022.2
20260901054518 60 248 1.0 10.0 0.00 0.11 0.01 68 1022.3
20260901053519 61 225 1.0 9.0 0.00 0.11 0.01 69 1022.4
20260901052518 61 225 4.0 11.0 0.00 0.11 0.01 67 1022.4
20260901051519 61 248 1.0 8.0 0.00 0.11 0.01 66 1022.5
20260901050538 61 248 3.0 9.0 0.00 0.11 0.01 65 1022.6
20260901045520 61 225 3.0 10.0 0.00 0.11 0.01 66 1022.7
20260901044518 61 248 1.0 7.0 0.00 0.11 0.01 67 1022.6
20260901043519 61 248 3.0 11.0 0.00 0.11 0.01 65 1022.7
20260901042518 61 225 4.0 11.0 0.00 0.11 0.01 62 1022.7
20260901041519 61 225 2.0 9.0 0.00 0.11 0.01 66 1022.8
20260901040519 60 248 2.0 8.0 0.00 0.11 0.01 66 1023.1
20260901035538 60 248 1.0 7.0 0.00 0.11 0.01 68 1023.0
20260901034518 59 248 2.0 10.0 0.00 0.11 0.01 70 1023.1
20260901033518 59 248 2.0 10.0 0.00 0.11 0.01 70 1023.2
20260901032538 60 293 1.0 7.0 0.00 0.11 0.01 71 1023.3
20260901031518 60 0.0 5.0 0.00 0.11 0.01 69 1023.5
20260901030518 59 270 3.0 13.0 0.00 0.11 0.01 70 1023.5
20260901025518 59 248 1.0 6.0 0.00 0.11 0.01 72 1023.5
20260901024518 58 225 1.0 7.0 0.00 0.11 0.01 74 1023.5
20260901023519 57 0.0 3.0 0.00 0.11 0.01 77 1023.4
20260901022518 56 0.0 2.0 0.00 0.11 0.01 81 1023.6
20260901021518 56 248 1.0 6.0 0.00 0.11 0.01 82 1023.7
20260901020518 55 248 2.0 8.0 0.00 0.11 0.01 83 1023.7
20260901015558 55 270 1.0 9.0 0.00 0.11 0.01 85 1023.7
20260901014518 54 293 1.0 4.0 0.00 0.11 0.01 89 1023.7
20260901013519 53 0.0 4.0 0.00 0.11 0.01 94 1023.6
20260901012518 52 0.0 4.0 0.00 0.11 0.01 95 1023.8
20260901011538 52 270 1.0 5.0 0.00 0.11 0.01 95 1023.8
20260901010539 51 0.0 1.0 0.00 0.11 0.01 95 1023.8
20260901005518 50 0.0 3.0 0.00 0.11 0.01 95 1023.9
20260901004518 50 0.0 1.0 0.00 0.11 0.01 95 1023.9
20260901003518 50 0.0 2.0 0.00 0.11 0.01 95 1023.9
20260901002518 49 0.0 1.0 0.00 0.11 0.01 95 1023.9
20260901001518 49 0.0 1.0 0.01 0.11 0.01 95 1023.9
20260901000518 49 0.0 3.0 0.01 0.11 0.01 95 1023.8
20260831235518 48 0.0 4.0 0.01 0.11 0.01 95 1023.7
20260831234538 48 0.0 0.0 0.01 0.11 0.01 95 1023.6
20260831233518 48 0.0 1.0 0.01 0.11 0.01 95 1023.6
20260831232518 47 0.0 0.0 0.01 0.11 0.01 95 1023.6
20260831231518 47 0.0 0.0 0.00 0.10 0.00 95 1023.5
20260831230518 47 0.0 1.0 0.00 0.10 0.00 95 1023.4
20260831225518 47 0.0 1.0 0.00 0.10 0.00 95 1023.3
20260831224518 47 0.0 0.0 0.00 0.10 0.00 95 1023.2
20260831223517 47 0.0 0.0 0.00 0.10 0.00 95 1023.0
20260831222518 47 0.0 0.0 0.00 0.10 0.00 95 1022.9
20260831221518 47 0.0 0.0 0.00 0.10 0.00 95 1022.9
20260831220518 47 0.0 1.0 0.00 0.10 0.00 95 1022.8
20260831215517 47 0.0 0.0 0.00 0.10 0.00 95 1022.7
20260831214537 47 0.0 0.0 0.00 0.10 0.00 95 1022.6
20260831213518 47 0.0 0.0 0.00 0.10 0.00 95 1022.5
20260831212517 47 0.0 0.0 0.00 0.10 0.00 95 1022.4
20260831211538 47 0.0 0.0 0.00 0.10 0.00 95 1022.4